Location: Brookfield Center
(41.2406°N, 80.5579°W)
Time: 00:10:07
(UTC+00:00)

Cosmos 2181 Rocket - Pass Details

Date: 18 January 2020
Orbit: 952 x 1014 km, 82.9° (Epoch: 23 February)

Event Time Altitude Azimuth Distance (km) Brightness Sun altitude
Rises 11:29:04 0° 188° (S) 3,623 7.1 -14.0°
Reaches altitude 10° 11:31:32 10° 189° (S) 2,687 6.4 -13.6°
Maximum altitude 11:37:42 81° 278° (W) 986 3.9 -12.5°
Drops below altitude 10° 11:44:00 10° 6° (N) 2,744 6.2 -11.3°
Sets 11:46:33 0° 7° (N) 3,705 6.9 -10.9°
